Location: Newark
(28.9833°N, 10.0667°W)
Time: 02:15:26
(UTC+00:00)

Hubble Space Telescope - Pass Details

Date: 16 December 2019
Orbit: 536 x 540 km, 28.5° (Epoch: 18 January)

Event Time Altitude Azimuth Distance (km) Brightness Sun altitude
Exits shadow 04:54:33 21° 110° (ESE) 1,247 3.2 -32.3°
Drops below altitude 10° 04:56:11 10° 95° (E) 1,785 4.3 -32.0°
Sets 04:58:36 0° 86° (E) 2,678 5.4 -31.4°
